Koksijde, Belgium

9:57 PM CEST on July 28, 2016 (GMT +0200)
Koksijde Air Base

Weather History for EBFN - February, 2013

Change the Weather History Date:

Sunday, February 10, 2013

  Actual Average Record
Temperature  
Mean Temperature 34 °F -  
Max Temperature 37 °F 44 °F 53 °F (2008)
Min Temperature 30 °F 38 °F 15 °F (2012)
Degree Days  
Heating Degree Days 32    
Moisture  
Dew Point 26 °F    
Average Humidity 75    
Maximum Humidity 93    
Minimum Humidity 51    
Precipitation  
Precipitation 0.03 in - - ()
Sea Level Pressure  
Sea Level Pressure 29.67 in    
Wind  
Wind Speed 14 mph ()    
Max Wind Speed 23 mph    
Max Gust Speed -    
Visibility 6.3 miles    
Events Snow    
Averages and records for this station are not official NWS values.
T = Trace of Precipitation, MM = Missing Value Source: Averaged Metar Reports

Daily Weather History Graph

Daily Weather History Graph

Search for Another Location

Airport or City:

Trip Planner

Search our weather history database for the weather conditions in past years. The results will help you decide how hot, cold, wet, or windy it might be!

Date:

Astronomy

Feb. 10, 2013 Rise Set
Actual Time 8:11 AM CET 5:56 PM CET
Civil Twilight 7:36 AM CET 6:31 PM CET
Nautical Twilight 6:57 AM CET 7:10 PM CET
Astronomical Twilight 6:19 AM CET 7:48 PM CET
Moon 7:45 AM CET (2/10) 6:39 PM CET (2/10)
Length of Visible Light 10h 54m
Length of Day
9h 45m
New Moon, 0% of the Moon is Illuminated
Feb 10
New Moon
Feb 17
First Quarter
Feb 25
Full
Mar 4
Last Quarter
Mar 11
New

Hourly Weather History & Observations

Time (CET) Temp. Windchill Dew Point Humidity Pressure Visibility Wind Dir Wind Speed Gust Speed Precip Events Conditions
12:12 AM 32.0 °F 22.5 °F 28.4 °F 87% 29.98 in 5.0 mi South 12.7 mph - N/A   Partly Cloudy
12:25 AM 32.0 °F 22.1 °F 28.4 °F 87% 29.98 in 5.0 mi South 13.8 mph - N/A   Partly Cloudy
12:55 AM 32.0 °F 23.0 °F 28.4 °F 87% 29.98 in 5.6 mi South 11.5 mph - N/A   Partly Cloudy
1:00 AM 32 °F - 29 °F 82% 29.98 in 6 mi South 11.2 mph - -   Scattered Clouds
1:25 AM 32.0 °F 23.6 °F 28.4 °F 87% 29.95 in 6.2 mi South 10.4 mph - N/A   Partly Cloudy
1:55 AM 32.0 °F 24.2 °F 28.4 °F 87% 29.95 in 6.2 mi South 9.2 mph - N/A   Partly Cloudy
2:25 AM 32.0 °F 24.8 °F 28.4 °F 87% 29.95 in 6.2 mi South 8.1 mph - N/A   Partly Cloudy
2:55 AM 32.0 °F 23.6 °F 26.6 °F 80% 29.92 in 6.2 mi South 10.4 mph - N/A   Scattered Clouds
3:25 AM 32.0 °F 23.6 °F 26.6 °F 80% 29.92 in 6.2 mi South 10.4 mph - N/A   Partly Cloudy
3:55 AM 32.0 °F 23.6 °F 26.6 °F 80% 29.89 in 6.2 mi South 10.4 mph - N/A   Partly Cloudy
4:00 AM 31 °F - 27 °F 80% 29.91 in 8 mi South 11.2 mph - -   Scattered Clouds
4:25 AM 32.0 °F 23.0 °F 26.6 °F 80% 29.89 in 6.2 mi SSE 11.5 mph - N/A   Partly Cloudy
4:55 AM 30.2 °F 21.3 °F 26.6 °F 86% 29.86 in 6.2 mi SSE 10.4 mph - N/A   Partly Cloudy
5:25 AM 30.2 °F 20.8 °F 26.6 °F 86% 29.86 in 6.2 mi SSE 11.5 mph - N/A   Scattered Clouds
5:55 AM 30.2 °F 20.2 °F 28.4 °F 93% 29.83 in 5.6 mi SSE 12.7 mph - N/A   Scattered Clouds
6:25 AM 32.0 °F 22.5 °F 28.4 °F 87% 29.83 in 6.2 mi SSE 12.7 mph - N/A   Scattered Clouds
6:55 AM 32.0 °F 21.6 °F 26.6 °F 80% 29.80 in 6.2 mi SSE 15.0 mph - N/A   Mostly Cloudy
7:00 AM 31 °F - 27 °F 80% 29.82 in 7 mi SSE 15.7 mph - -   Partly Cloudy
7:25 AM 32.0 °F 21.6 °F 26.6 °F 80% 29.80 in 6.2 mi SSE 15.0 mph - N/A   Mostly Cloudy
8:25 AM 32.0 °F 21.2 °F 26.6 °F 80% 29.77 in 6.2 mi SSE 16.1 mph - N/A   Mostly Cloudy
8:55 AM 32.0 °F 21.2 °F 26.6 °F 80% 29.77 in 6.2 mi SSE 16.1 mph - N/A   Mostly Cloudy
9:25 AM 32.0 °F 20.8 °F 26.6 °F 80% 29.77 in 6.2 mi SSE 17.3 mph - N/A   Mostly Cloudy
10:00 AM 33 °F - 26 °F 65% 29.76 in 14 mi SSE 17.9 mph - -   Mostly Cloudy
10:25 AM 33.8 °F 22.8 °F 26.6 °F 75% 29.74 in 6.2 mi SSE 18.4 mph - N/A   Mostly Cloudy
10:55 AM 33.8 °F 22.5 °F 26.6 °F 75% 29.71 in 6.2 mi SSE 19.6 mph - N/A   Mostly Cloudy
11:25 AM 33.8 °F 22.2 °F 26.6 °F 75% 29.71 in 6.2 mi SSE 20.7 mph - N/A   Mostly Cloudy
11:56 AM 35.6 °F 24.5 °F 26.6 °F 70% 29.68 in 6.2 mi SSE 20.7 mph - N/A   Mostly Cloudy
12:25 PM 35.6 °F 24.2 °F 26.6 °F 70% 29.68 in 6.2 mi SSE 21.9 mph - N/A   Mostly Cloudy
12:55 PM 37.4 °F 27.2 °F 26.6 °F 65% 29.65 in 6.2 mi SSE 19.6 mph - N/A   Mostly Cloudy
1:00 PM 36 °F - 26 °F 57% 29.68 in 19 mi SSE 20.1 mph - -   Scattered Clouds
1:55 PM 35.6 °F 24.2 °F 26.6 °F 70% 29.62 in 6.2 mi SSE 21.9 mph - N/A   Mostly Cloudy
2:25 PM 35.6 °F 24.5 °F 24.8 °F 65% 29.59 in 6.2 mi SSE 20.7 mph - N/A   Mostly Cloudy
3:25 PM 37.4 °F 26.4 °F 24.8 °F 60% 29.56 in 6.2 mi SE 23.0 mph - N/A   Mostly Cloudy
3:55 PM 37.4 °F 26.4 °F 24.8 °F 60% 29.56 in 6.2 mi SE 23.0 mph - N/A   Mostly Cloudy
4:00 PM 37 °F - 26 °F 52% 29.57 in 22 mi SE 22.4 mph - -   Scattered Clouds
4:25 PM 37.4 °F 26.4 °F 24.8 °F 60% 29.53 in 6.2 mi SE 23.0 mph - N/A   Mostly Cloudy
4:55 PM 35.6 °F 24.5 °F 23.0 °F 60% 29.53 in 6.2 mi SE 20.7 mph - N/A   Mostly Cloudy
5:25 PM 35.6 °F 24.5 °F 23.0 °F 60% 29.50 in 6.2 mi SE 20.7 mph - N/A   Mostly Cloudy
5:55 PM 35.6 °F 26.2 °F 23.0 °F 60% 29.50 in 6.2 mi SE 15.0 mph - N/A   Mostly Cloudy
6:25 PM 35.6 °F 26.2 °F 24.8 °F 65% 29.50 in 6.2 mi SE 15.0 mph - N/A   Mostly Cloudy
6:55 PM 35.6 °F 25.5 °F 23.0 °F 60% 29.50 in 6.2 mi SE 17.3 mph - N/A   Mostly Cloudy
7:00 PM 35 °F - 24 °F 51% 29.51 in 19 mi SE 17.9 mph - -   Overcast
7:25 PM 35.6 °F 25.9 °F 23.0 °F 60% 29.47 in 6.2 mi SE 16.1 mph - N/A   Mostly Cloudy
7:55 PM 35.6 °F 24.8 °F 23.0 °F 60% 29.47 in 6.2 mi SE 19.6 mph - N/A   Mostly Cloudy
8:25 PM 33.8 °F 22.2 °F 23.0 °F 65% 29.44 in 6.2 mi SE 20.7 mph - N/A   Mostly Cloudy
8:32 PM 33.8 °F 22.2 °F 23.0 °F 65% 29.44 in 6.2 mi SE 20.7 mph - N/A Snow Light Snow
8:55 PM 33.8 °F 21.6 °F 24.8 °F 70% 29.44 in 6.2 mi SE 23.0 mph - N/A Snow Light Snow
9:01 PM 33.8 °F 21.6 °F 26.6 °F 75% 29.44 in 4.3 mi SE 23.0 mph - N/A Snow Light Snow
9:08 PM 32.0 °F 19.2 °F 26.6 °F 80% 29.44 in - SE 23.0 mph - N/A Snow Light Snow
9:25 PM 32.0 °F 19.5 °F 28.4 °F 87% 29.44 in 2.5 mi SE 21.9 mph - N/A Snow Light Snow
9:30 PM 32.0 °F 19.5 °F 28.4 °F 87% 29.44 in - ESE 21.9 mph - N/A Snow Light Snow
10:00 PM 31 °F - 29 °F 89% 29.44 in 2 mi ESE 20.1 mph - - Snow Light Snow
10:25 PM 32.0 °F 19.8 °F 28.4 °F 87% 29.42 in 1.6 mi ESE 20.7 mph - N/A Snow Light Snow
10:55 PM 30.2 °F 18.1 °F 28.4 °F 93% 29.42 in 1.2 mi ESE 18.4 mph - N/A Snow Light Snow
11:25 PM 30.2 °F 18.5 °F 28.4 °F 93% 29.42 in 1.2 mi ESE 17.3 mph - N/A Snow Light Snow
11:55 PM 30.2 °F 18.5 °F 28.4 °F 93% 29.42 in 1.2 mi ESE 17.3 mph - N/A Snow Light Snow